Weather Roundup
Issued by NWS Sterling, VA

Home | Current Version | Previous Version | Text Only | Print | Product List | Glossary On
Versions: 1 2 3 4 5 6 7 8 9 10 11 12 13 14 15 16 17 18 19 20 21 22 23 24 25 26 27 28 29 30 31 32 33 34 35 36 37 38 39 40 41 42 43 44 45 46 47 48 49 50
000
NZUS51 KLWX 012213
HRRLWX

HOURLY OBSERVATIONS AROUND THE LWX CWA
500 PM EST MON MAR 01 2021

Note: "FAIR" indicates few or no clouds below 12,000 feet
with no significant weather and/or obstructions to visibility.

 * =Non NWS site. Station does not report significant weather
    and/or obstructions to visibility.

...DOWNTOWN AREAS...

CITY           SKY/WX    TMP DP  RH WIND       PRES   REMARKS
WASHINGTON NAT PTSUNNY   51  28  41 NW10G21   29.85S


...WASHINGTON SUBURBS...

CITY           SKY/WX    TMP DP  RH WIND       PRES   REMARKS
DULLES         PTSUNNY   49  27  42 NW24G41   29.86R
MANASSAS*      PTSUNNY   50  29  44 W14       29.88R
LEESBURG*      MOSUNNY   45  25  45 NW28G41   29.88R
GAITHERSBURG*  PTSUNNY   47  25  42 NW17G28   29.85S
FT BELVOIR     PTSUNNY   50  28  43 NW18      29.86R
QUANTICO       PTSUNNY   52  29  41 NW10G24   29.88R
ANDREWS AFB    PTSUNNY   48  29  48 NW10G22   29.83S
COLLEGE PARK*  PTSUNNY   50  22  33 NW14G23   29.84S

...CENTRAL VIRGINIA...

CITY           SKY/WX    TMP DP  RH WIND       PRES   REMARKS
CULPEPER*      PTSUNNY   52  24  34 N8        29.89R
CHARLOTTESVILL PTSUNNY   52  22  30 NW12G22   29.89R
WARRENTON*     PTSUNNY   51  23  33 NW14G21   29.87R
ORANGE*        PTSUNNY   50  27  40 NW3       29.88R
GORDONSVILLE*  PTSUNNY   52  21  29 W10G20    29.88R
STAFFORD*      PTSUNNY   51  17  26 NW8       29.91R
FREDERICKSBRG* PTSUNNY   52  34  51 W5        29.86R
LOUISA*        PTSUNNY   50  25  37 NW13G20   29.92R
ASHLAND        PTSUNNY   53  41  63 NW5       29.87R
RICHMOND       CLOUDY    53  44  71 NW7       29.85R

...NORTHEAST/CENTRAL MARYLAND...

CITY           SKY/WX    TMP DP  RH WIND       PRES   REMARKS
BWI AIRPORT    LGT RAIN  50  26  39 NW23G41   29.82S
ANNAPOLIS      PTSUNNY   50  30  46 NW14G25   29.82R
MARTIN AIRPORT SUNNY     48  32  53 W26G36    29.82F
ABERDEEN*      MOCLDY    48  27  44 NW14G24   29.81R
WESTMINSTER*   MOSUNNY   48  23  37 W24G33    29.83R
FREDERICK*     MOSUNNY   50  27  40 NW25G33   29.87R
FORT MEADE*    PTSUNNY   46  32  57 NW12G25   29.85F

...SOUTHERN MARYLAND...

CITY           SKY/WX    TMP DP  RH WIND       PRES   REMARKS
PATUXENT RIVER PTSUNNY   49  33  54 NW12      29.83R
ST MARYS CITY  PTSUNNY   53  33  46 NW9G21    29.83R
LEONARDTOWN*   PTSUNNY   46  30  53 W5        29.85F

...MARYLAND EASTERN SHORE...

CITY           SKY/WX    TMP DP  RH WIND       PRES   REMARKS
SALISBURY      MOCLDY    49  39  68 NW10      29.81S
CAMBRIDGE*     SUNNY     48  36  61 NW7       29.83S
OCEAN CITY     MOCLDY    49  41  74 NW15G24   29.81R
BAY BRIDGE AP* PTSUNNY   48  32  53 NW13G20   29.83S
EASTON*        PTSUNNY   48  36  61 NW14G20   29.85F

...SHENANDOAH VALLEY...

CITY           SKY/WX    TMP DP  RH WIND       PRES   REMARKS
MARTINSBURG    MOSUNNY   47  19  33 NW21G30   29.87R
HAGERSTOWN APT PTSUNNY   46  22  38 NW29G36   29.88R
STAUNTON*      PTSUNNY   46  24  43 NW20G26   29.92R
WINCHESTER*    MOSUNNY   45  23  42 W29G36    29.87R WCI  35
FRONT ROYAL*   PTSUNNY   46  25  42 W16G26    29.88R
LURAY*         PTSUNNY   48  21  34 NW18G29   29.89R
NEW MARKET*    PTSUNNY   48  20  32 NW10G25   29.91R
WAYNESBORO*    PTSUNNY   46  20  35 W14G24    29.90R

...APPALACHIANS...

CITY           SKY/WX    TMP DP  RH WIND       PRES   REMARKS
PETERSBURG WV* MOSUNNY   47  25  41 W14G29    29.95R
CUMBERLAND*    MOSUNNY   44  18  35 NW20G46   29.97R
OAKLAND*       CLOUDY    32  19  59 NW16G24   29.90R WCI  21
HOT SPRINGS*   PTSUNNY   35  22  57 W21G35    29.91R WCI  24
ELKINS         CLOUDY    40  23  50 NW15G28   29.99R WCI  32
BEDFORD PA*    CLOUDY    38  22  52 NW18G26   29.92R WCI  29
JOHNSTOWN      CLOUDY    32  20  61 NW24G38   29.89R WCI  19
ALTOONA        CLOUDY    37  21  52 NW25G36   29.90R WCI  25

...SOUTHERN PENNSYLVANIA/DELAWARE...

CITY           SKY/WX    TMP DP  RH WIND       PRES   REMARKS
YORK           CLOUDY    46  23  40 NW20G25   29.84R
WILMINGTON     MOCLDY    47  26  44 NW20G25   29.80R

...MARINE OBSERVATIONS...

STATION/POSITION TIME  TEMP    WIND        PRES
                       AIR SEA DIR/SP/G
                 (UTC) (F)     (DEG/KT/KT) (MB)
THOMAS PT LIGHT  2200   48 39  280/ 17/ 20 1010.7S
TOLCHESTER       2130   46 41  310/ 12/ 17 1010.0S
COVE POINT       2130   47     320/ 22/ 25 1010.6R
GOOSES REEF      2154   47 39  310/ 17/ 19 1003.7F
BALT HARBOR      2130   50 42  330/  9/ 13 1009.4S
BALT KEY BRIDGE  2130   48     300/ 18/ 20 1009.5S
WASH DC CHANNEL  2130   50 43  320/  8/ 11 1011.0F
DAHLGREN         2130   50 42  320/  3/  6 1010.0R
LEWISETTA        2130   49 41  340/  9/ 12 1010.4R
SOLOMONS ISLAND  2130   49 40  320/ 10/ 15 1009.9R
PINEY POINT      2130          340/ 17/ 21   N/A
POTOMAC BUOY     2154   46 40  350/ 10/ 12 1010.6R
CAMBRIDGE PIER   2130   47 41  290/  9/ 13 1010.4R
BISHOPS HEAD     2130   48 45  330/ 12/ 16 1010.3R
CHESAPEAKE CITY  2130   47 39  320/  5/ 12 1009.3F




USA.gov is the U.S. government's official web portal to all federal, state and local government web resources and services.